• In Belarus
  • List of Countries
  • For 7 days
  • Water Temperature
  • Satellite Maps
  • Weather Map
  • Weather Widgets
  • user-avatar
    Login

    Hourly Weather Fez

    Today, 21 August, Tuesday

    Time Temperature Precipitation Wind Pressure Humidity
    00:00 +31°C° 0 mm 1 mps 729 mmHg 47%
    01:00 +31°C° 0 mm 1 mps 729 mmHg 49%
    02:00 +30°C° 0 mm 1 mps 729 mmHg 50%
    03:00 +30°C° 0 mm 1 mps 728 mmHg 51%
    04:00 +29°C° 0 mm 1 mps 728 mmHg 52%
    05:00 +29°C° 0 mm 1 mps 729 mmHg 53%
    06:00 +29°C° 0 mm 1 mps 729 mmHg 54%
    07:00 +30°C° 0 mm 1 mps 729 mmHg 49%
    08:00 +31°C° 0 mm 1 mps 729 mmHg 43%
    09:00 +34°C° 0 mm 2 mps 729 mmHg 38%
    10:00 +35°C° 0 mm 2 mps 729 mmHg 34%
    11:00 +37°C° 0 mm 2 mps 729 mmHg 30%
    12:00 +38°C° 0 mm 2 mps 729 mmHg 26%
    13:00 +39°C° 0 mm 2 mps 729 mmHg 25%
    14:00 +39°C° 0 mm 2 mps 728 mmHg 24%
    15:00 +40°C° 0 mm 2 mps 728 mmHg 22%
    16:00 +39°C° 0 mm 2 mps 728 mmHg 23%
    17:00 +39°C° 0 mm 3 mps 728 mmHg 25%
    18:00 +38°C° 0 mm 3 mps 728 mmHg 26%
    19:00 +37°C° 0.1 mm 3 mps 728 mmHg 32%
    20:00 +35°C° 0.1 mm 3 mps 728 mmHg 37%
    21:00 +34°C° 0.1 mm 2 mps 729 mmHg 42%
    22:00 +32°C° 0.1 mm 2 mps 729 mmHg 44%
    23:00 +32°C° 0.1 mm 2 mps 729 mmHg 46%

    Tomorrow, 22 August, Wednesday

    Time Temperature Precipitation Wind Pressure Humidity
    00:00 +31°C° 0.1 mm 1 mps 729 mmHg 48%
    01:00 +31°C° 0 mm 1 mps 729 mmHg 49%
    02:00 +30°C° 0 mm 1 mps 728 mmHg 49%
    03:00 +30°C° 0 mm 1 mps 728 mmHg 50%
    04:00 +30°C° 0 mm 1 mps 728 mmHg 50%
    05:00 +29°C° 0 mm 1 mps 728 mmHg 51%
    06:00 +29°C° 0 mm 1 mps 728 mmHg 51%
    07:00 +30°C° 0 mm 1 mps 728 mmHg 46%
    08:00 +32°C° 0 mm 1 mps 729 mmHg 40%
    09:00 +34°C° 0 mm 2 mps 729 mmHg 34%
    10:00 +35°C° 0 mm 2 mps 729 mmHg 31%
    11:00 +37°C° 0 mm 2 mps 729 mmHg 27%
    12:00 +38°C° 0 mm 2 mps 729 mmHg 23%
    13:00 +39°C° 0 mm 2 mps 729 mmHg 22%
    14:00 +39°C° 0 mm 2 mps 729 mmHg 21%
    15:00 +40°C° 0 mm 2 mps 728 mmHg 20%
    16:00 +39°C° 0 mm 3 mps 728 mmHg 21%
    17:00 +39°C° 0 mm 3 mps 728 mmHg 23%
    18:00 +40°C° 0 mm 4 mps 729 mmHg 24%
    19:00 +37°C° 0 mm 3 mps 729 mmHg 29%
    20:00 +36°C° 0 mm 3 mps 729 mmHg 34%
    21:00 +34°C° 0 mm 3 mps 730 mmHg 39%
    22:00 +32°C° 0 mm 2 mps 730 mmHg 41%
    23:00 +32°C° 0 mm 2 mps 730 mmHg 43%

    Day after tomorrow, 23 August, Thursday

    Time Temperature Precipitation Wind Pressure Humidity
    00:00 +31°C° 0 mm 1 mps 730 mmHg 45%
    01:00 +31°C° 0 mm 1 mps 729 mmHg 46%
    02:00 +30°C° 0 mm 1 mps 729 mmHg 47%
    03:00 +30°C° 0 mm 1 mps 729 mmHg 47%
    04:00 +29°C° 0 mm 1 mps 729 mmHg 48%
    05:00 +29°C° 0 mm 1 mps 729 mmHg 49%
    06:00 +28°C° 0 mm 1 mps 729 mmHg 50%
    07:00 +30°C° 0 mm 1 mps 729 mmHg 45%
    08:00 +31°C° 0 mm 1 mps 729 mmHg 40%
    09:00 +33°C° 0 mm 1 mps 730 mmHg 35%
    10:00 +34°C° 0 mm 1 mps 730 mmHg 31%
    11:00 +36°C° 0 mm 2 mps 730 mmHg 27%
    12:00 +38°C° 0 mm 2 mps 730 mmHg 23%
    13:00 +38°C° 0 mm 2 mps 729 mmHg 21%
    14:00 +39°C° 0 mm 2 mps 729 mmHg 20%
    15:00 +40°C° 0 mm 2 mps 729 mmHg 18%
    16:00 +39°C° 0 mm 3 mps 729 mmHg 18%
    17:00 +39°C° 0 mm 3 mps 729 mmHg 19%
    18:00 +40°C° 0 mm 4 mps 729 mmHg 19%
    19:00 +37°C° 0 mm 3 mps 729 mmHg 24%
    20:00 +36°C° 0 mm 3 mps 730 mmHg 28%
    21:00 +34°C° 0 mm 2 mps 730 mmHg 33%
    22:00 +32°C° 0 mm 2 mps 730 mmHg 35%
    23:00 +32°C° 0 mm 2 mps 730 mmHg 37%

    24 August, Friday

    Time Temperature Precipitation Wind Pressure Humidity
    00:00 +31°C° 0 mm 1 mps 730 mmHg 39%
    01:00 +30°C° 0 mm 1 mps 730 mmHg 40%
    02:00 +30°C° 0 mm 1 mps 729 mmHg 41%
    03:00 +29°C° 0 mm 1 mps 729 mmHg 43%
    04:00 +29°C° 0 mm 1 mps 729 mmHg 43%
    05:00 +29°C° 0 mm 1 mps 729 mmHg 43%
    06:00 +28°C° 0 mm 1 mps 729 mmHg 43%
    07:00 +30°C° 0 mm 1 mps 729 mmHg 37%
    08:00 +32°C° 0 mm 1 mps 730 mmHg 32%
    09:00 +34°C° 0 mm 2 mps 730 mmHg 26%
    10:00 +36°C° 0 mm 2 mps 730 mmHg 22%
    11:00 +37°C° 0 mm 3 mps 730 mmHg 18%
    12:00 +39°C° 0 mm 3 mps 730 mmHg 14%
    13:00 +39°C° 0 mm 3 mps 729 mmHg 13%
    14:00 +40°C° 0 mm 3 mps 729 mmHg 12%
    15:00 +41°C° 0 mm 4 mps 729 mmHg 12%
    16:00 +41°C° 0 mm 4 mps 729 mmHg 12%
    17:00 +41°C° 0 mm 4 mps 729 mmHg 13%
    18:00 +40°C° 0 mm 4 mps 729 mmHg 13%
    19:00 +38°C° 0 mm 4 mps 729 mmHg 16%
    20:00 +36°C° 0 mm 3 mps 729 mmHg 18%
    21:00 +35°C° 0 mm 3 mps 730 mmHg 21%
    22:00 +34°C° 0 mm 3 mps 729 mmHg 23%
    23:00 +34°C° 0 mm 2 mps 729 mmHg 25%

    25 August, Saturday

    Time Temperature Precipitation Wind Pressure Humidity
    00:00 +32°C° 0 mm 2 mps 729 mmHg 28%
    01:00 +31°C° 0 mm 2 mps 729 mmHg 29%
    02:00 +31°C° 0 mm 1 mps 729 mmHg 30%
    03:00 +30°C° 0 mm 1 mps 728 mmHg 31%
    04:00 +30°C° 0 mm 1 mps 728 mmHg 31%
    05:00 +30°C° 0 mm 1 mps 728 mmHg 31%
    06:00 +29°C° 0 mm 1 mps 728 mmHg 31%
    07:00 +31°C° 0 mm 1 mps 729 mmHg 28%
    08:00 +34°C° 0 mm 2 mps 729 mmHg 25%
    09:00 +36°C° 0 mm 2 mps 729 mmHg 21%
    10:00 +37°C° 0 mm 2 mps 729 mmHg 20%
    11:00 +39°C° 0 mm 2 mps 729 mmHg 18%
    12:00 +40°C° 0 mm 2 mps 728 mmHg 16%
    13:00 +41°C° 0 mm 2 mps 728 mmHg 15%
    14:00 +41°C° 0 mm 2 mps 727 mmHg 15%
    15:00 +42°C° 0 mm 2 mps 727 mmHg 15%
    16:00 +42°C° 0 mm 2 mps 727 mmHg 15%
    17:00 +41°C° 0 mm 2 mps 727 mmHg 15%
    18:00 +42°C° 0 mm 3 mps 727 mmHg 16%
    19:00 +40°C° 0 mm 2 mps 727 mmHg 17%
    20:00 +38°C° 0 mm 2 mps 728 mmHg 19%
    21:00 +36°C° 0 mm 1 mps 728 mmHg 21%
    22:00 +35°C° 0 mm 1 mps 728 mmHg 22%
    23:00 +34°C° 0 mm 1 mps 728 mmHg 24%

    26 August, Sunday

    Time Temperature Precipitation Wind Pressure Humidity
    00:00 +34°C° 0 mm 1 mps 727 mmHg 25%
    01:00 +33°C° 0 mm 1 mps 727 mmHg 26%
    02:00 +33°C° 0 mm 1 mps 727 mmHg 27%
    03:00 +32°C° 0 mm 1 mps 726 mmHg 28%
    04:00 +32°C° 0 mm 1 mps 726 mmHg 29%
    05:00 +31°C° 0 mm 1 mps 726 mmHg 29%
    06:00 +31°C° 0 mm 1 mps 726 mmHg 30%
    07:00 +33°C° 0 mm 1 mps 727 mmHg 27%
    08:00 +35°C° 0 mm 1 mps 727 mmHg 24%
    09:00 +37°C° 0 mm 1 mps 727 mmHg 21%
    10:00 +40°C° 0 mm 1 mps 727 mmHg 19%
    11:00 +41°C° 0 mm 1 mps 727 mmHg 18%
    12:00 +43°C° 0 mm 2 mps 727 mmHg 16%
    13:00 +45°C° 0 mm 2 mps 727 mmHg 15%
    14:00 +45°C° 0 mm 2 mps 726 mmHg 15%
    15:00 +46°C° 0 mm 3 mps 726 mmHg 14%
    16:00 +45°C° 0 mm 3 mps 726 mmHg 15%
    17:00 +44°C° 0 mm 4 mps 726 mmHg 17%
    18:00 +43°C° 0 mm 4 mps 726 mmHg 18%
    19:00 +40°C° 0.1 mm 3 mps 727 mmHg 22%
    20:00 +39°C° 0.1 mm 3 mps 727 mmHg 26%
    21:00 +37°C° 0.1 mm 2 mps 728 mmHg 29%
    22:00 +36°C° 0 mm 2 mps 728 mmHg 32%
    23:00 +35°C° 0 mm 2 mps 728 mmHg 35%
    Show more